Location: Unspecified
(0.0000°N, 0.0000°E)
Time: 10:37:41
(UTC+00:00)

CBERS-1 - Pass Details

Date: 14 June 2023
Orbit: 767 x 776 km, 98.8° (Epoch: 21 September)

Event Time Altitude Azimuth Distance (km) Brightness Sun altitude
Rises 03:29:23 0° 5° (N) 3,239 7.6 -34.2°
Reaches altitude 10° 03:31:42 10° 2° (N) 2,315 6.8 -33.7°
Enters shadow 03:33:12 20° 357° (N) 1,745 6.0 -33.3°
